#timestamp,LO_Frequency,Hit,StdDev 
1614956415.2,286047004.7,N
1614956435.1,286047007.2,N
1614956436.0,286047007.2,N
1614956455.8,286047004.6,N
1614956475.6,286047004.8,N
1614956495.5,286047005.2,N
1614956515.3,286047005.4,N
1614956535.1,286047005.1,N
1614956555.9,286047005.4,N
1614956575.7,286047005.8,N
1614956595.6,286047004.8,N
1614956615.4,286047005.3,N
1614956635.2,286047005.2,N
1614956655.1,286047007.6,N
1614956656.0,286047007.6,N
1614956675.8,286047004.8,N
1614956695.7,286047003.0,N
1614956715.5,286047005.6,N
1614956735.3,286047005.5,N
1614956755.2,286047003.5,N
1614956775.0,286047005.0,N
1614956775.9,286047005.0,N
1614956795.7,286047005.7,N
1614956815.6,286047007.6,N
1614956835.4,286047006.6,N
1614956855.3,286047006.4,N
1614956875.1,286047007.1,N
1614956895.8,286047005.6,Y
1614956915.7,286046997.9,P
1614956935.5,286046997.2,N
1614956955.4,286046997.0,N
1614956975.2,286046998.0,N
1614956995.0,286046997.7,N
1614956995.9,286046997.7,N
1614957015.8,286046997.4,N
1614957035.6,286046996.8,N
1614957055.4,286046996.7,N
1614957075.3,286046996.7,N
1614957095.1,286046996.9,N
1614957115.9,286047000.1,N
1614957135.7,286047002.5,N
1614957155.5,286047002.3,N
1614957175.4,286047003.9,N
1614957195.2,286047005.1,N
1614957215.0,286047004.6,N
1614957215.9,286047004.6,N
1614957235.8,286047005.6,N
1614957255.6,286047004.2,N
1614957275.4,286047001.6,N
1614957325.3,286047002.8,E
1614957335.2,286047000.8,N
1614957355.1,286046999.6,P
1614957356.0,286046999.6,N
1614957375.8,286046999.5,N
1614957395.7,286046998.3,Y
1614957415.5,286046996.6,P
1614957435.3,286046999.3,N
1614957455.2,286046998.5,N
1614957475.9,286046996.5,N
1614957495.7,286046997.4,N
1614957515.6,286046997.8,N
1614957535.4,286046997.9,N
1614957555.2,286046997.8,N
1614957575.1,286046995.9,Y
1614957576.0,286046995.9,P
1614957595.8,286046996.9,P
1614957615.7,286046998.6,N
1614957635.5,286046998.4,N
1614957655.3,286046998.2,N
1614957675.2,286046999.4,N
1614957695.0,286046996.5,Y
1614957695.9,286046996.5,P
1614957715.8,286047000.7,N
1614957735.6,286046998.1,N
1614957755.4,286047002.3,N
1614957775.3,286047001.7,N
1614957795.1,286047005.7,N
1614957796.0,286047005.7,N
1614957815.8,286047002.9,N
1614957835.7,286047001.6,N
1614957855.5,286047001.5,N
1614957875.4,286047002.7,N
1614957895.2,286047000.8,N
1614957915.0,286046998.5,N
1614957915.9,286046998.5,N
1614957935.8,286046999.5,N
1614957955.6,286046996.6,N
1614957975.4,286046996.6,N
1614957995.3,286046998.4,N
1614958015.1,286046998.6,N
1614958035.9,286046998.1,N
1614958055.7,286047000.8,N
1614958075.5,286046998.7,N
1614958095.4,286046997.1,N
1614958115.2,286046999.2,N
1614958135.1,286046999.2,N
1614958136.0,286046999.2,N
1614958155.8,286046996.6,N
1614958175.6,286046997.6,N
1614958195.5,286046997.5,N
1614958215.3,286046997.5,N
1614958235.1,286046994.9,N
1614958255.9,286046997.7,N
1614958275.7,286046998.3,N
1614958295.6,286046998.3,N
1614958315.4,286047001.1,N
1614958335.2,286046998.4,N
1614958355.1,286046996.8,N
1614958356.0,286046996.8,N
1614958375.8,286046995.9,N
1614958395.6,286046995.9,N
1614958415.5,286046996.0,N
1614958435.3,286046997.0,N
1614958455.2,286046999.6,N
1614958475.9,286046999.3,N
1614958495.7,286046998.4,N
1614958515.6,286046998.8,N
1614958535.4,286046998.9,N
1614958555.2,286046998.1,N
1614958575.1,286046996.5,N
1614958576.0,286046996.5,N
1614958595.8,286046999.6,N
1614958615.7,286046998.5,N
1614958635.5,286047000.8,N
1614958655.3,286047000.8,N
1614958675.2,286047000.7,N
1614958695.0,286047001.2,N
1614958695.9,286047001.2,N
1614958715.7,286047000.1,N
1614958735.6,286047002.4,N
1614958755.4,286047000.2,N
1614958775.3,286047002.8,N
1614958795.1,286047002.5,N
1614958815.8,286047002.1,N
1614958835.7,286047002.3,N
1614958855.5,286047002.2,N
1614958875.3,286046999.8,N
1614958895.2,286047004.4,N
1614958915.0,286047002.5,N
1614958915.9,286047002.5,N
1614958935.8,286047002.4,N
1614958955.6,286047002.8,N
1614958975.4,286047001.6,N
1614958995.3,286047001.9,N
1614959015.1,286047003.8,N
1614959035.9,286047004.1,N
1614959055.7,286047003.1,N
1614959075.5,286047004.2,N
1614959095.4,286047004.0,N
1614959115.2,286047004.1,N
1614959135.0,286047003.6,N
1614959135.9,286047003.6,N
1614959155.8,286047004.0,N
1614959175.6,286047004.4,Y
1614959195.5,286047000.1,P
1614959215.3,286047000.1,N
1614959235.1,286047002.5,N
1614959255.9,286047002.7,N
1614959275.7,286047000.2,N
1614959295.6,286047000.4,N
1614959315.4,286047000.2,N
1614959335.2,286047000.3,N
1614959355.1,286047000.0,N
1614959356.0,286047000.0,N
1614959375.8,286046999.9,N
1614959395.6,286046999.8,N
1614959415.5,286047002.0,N
1614959435.3,286047002.4,N
1614959455.2,286047004.3,Y
1614959475.0,286047001.4,P
1614959475.9,286047001.4,P
1614959495.7,286047004.0,P
1614959515.6,286047001.6,N
1614959535.4,286047004.0,Y
1614959555.3,286047000.1,P
1614959575.1,286047002.5,N
1614959595.8,286047002.6,N
1614959615.7,286047002.2,N
1614959635.5,286047002.8,Y
1614959655.4,286047000.9,P
1614959675.2,286046998.4,P
1614959695.0,286046998.6,N
1614959695.9,286046998.6,N
1614959715.8,286047000.6,N
1614959735.6,286047000.6,N
1614959755.4,286047001.0,N
1614959775.3,286047001.0,N
1614959795.1,286047000.7,N
1614959815.9,286046999.8,N
1614959835.7,286047002.3,N
1614959855.5,286046999.8,N
1614959875.4,286047002.7,N
1614959895.2,286047002.7,N
1614959915.0,286046999.7,N
1614959915.9,286046999.7,N
1614959935.8,286047004.3,Y
1614959955.6,286047002.2,P
1614959975.5,286047002.6,P
1614959995.3,286047001.5,N
